Tracking 19176 objects as of 27-May-2018
HD Live streaming from Space Station
objects crossing your sky now

FENGYUN 1C DEB

Track FENGYUN 1C DEB now!
10-day predictions


NORAD ID: 30443
Int'l Code: 1999-025AFE
Perigee: 824.8 km
Apogee: 876.7 km
Inclination: 98.8 °
Period: 101.8 minutes
Semi major axis: 7221 km
RCS: 0.034 m2 (small)
Launch date: May 10, 1999
Source: People's Republic of China (PRC)
Launch site: Taiyaun Space Center, China (TSC)

Note: This is SATELLITE DEBRIS
aabbcc
Your satellite tracking list
Your tracking list is empty




NASA's NSSDC Master Catalog

Two Line Element Set (TLE):
1 30443U 99025AFE 18146.71604973  .00000649  00000-0  35839-3 0  9996
2 30443  98.7996  67.1811 0035912 340.9860  18.9970 14.14613526583517
Source of the keplerian elements: AFSPC